Location: Brodeslavy
(49.9527°N, 13.5567°E)
Time: 20:36:37
(UTC+00:00)

COSMOS 2455 - Pass Details

Date: 17 June 2025
Orbit: 899 x 909 km, 67.1° (Epoch: 16 July)

Event Time Altitude Azimuth Distance (km) Brightness Sun altitude
Rises 20:03:37 0° 320° (NW) 3,547 8.8 -6.2°
Reaches altitude 10° 20:06:15 10° 314° (NW) 2,602 7.1 -6.5°
Maximum altitude 20:11:52 42° 246° (WSW) 1,285 3.8 -7.0°
Drops below altitude 10° 20:17:27 10° 178° (S) 2,587 4.8 -7.6°
Enters shadow 20:18:55 - 173° (S) 3,110 5.1 -7.7°
